CW4226 Weather Reports


Display with metric or nautical units.
time (UTC)temp
F
wind
direction
speed
MPH
gust
MPH
rain 1hr
in
rain 24hr
in
rain mn
in
humidity
%
barometer
mb
20260505024500 63 86 2.0 3.0 0.00 0.00 0.00 43 1003.8
20260505023957 63 34 2.0 12.0 0.00 0.00 0.00 44 1003.7
20260505023454 63 336 1.0 7.0 0.00 0.00 0.00 42 1003.9
20260505022952 63 230 3.0 3.0 0.00 0.00 0.00 43 1003.8
20260505022449 64 239 0.0 5.0 0.00 0.00 0.00 42 1003.8
20260505021946 64 238 1.0 4.0 0.00 0.00 0.00 42 1003.8
20260505021555 64 250 1.0 5.0 0.00 0.00 0.00 42 1002.4
20260505021443 63 308 0.0 5.0 0.00 0.00 0.00 42 1003.9
20260505020938 64 44 0.0 2.0 0.00 0.00 0.00 42 1004.1
20260505020434 64 225 2.0 5.0 0.00 0.00 0.00 42 1003.8
20260505020055 65 228 1.0 16.0 0.00 0.00 0.00 40 1002.3
20260505015931 64 36 2.0 3.0 0.00 0.00 0.00 42 1003.7
20260505015428 65 234 4.0 5.0 0.00 0.00 0.00 41 1004.0
20260505014925 65 265 0.0 6.0 0.00 0.00 0.00 40 1003.9
20260505014554 65 39 1.0 13.0 0.00 0.00 0.00 42 1002.4
20260505014422 65 63 2.0 5.0 0.00 0.00 0.00 40 1003.9
20260505013919 65 249 4.0 15.0 0.00 0.00 0.00 40 1003.8
20260505013416 65 254 3.0 4.0 0.00 0.00 0.00 41 1003.7
20260505013055 65 221 3.0 12.0 0.00 0.00 0.00 40 1002.4
20260505012914 64 230 4.0 4.0 0.00 0.00 0.00 41 1003.8
20260505012412 64 267 2.0 4.0 0.00 0.00 0.00 40 1004.0
20260505011908 65 344 1.0 5.0 0.00 0.00 0.00 41 1003.8
20260505011554 65 257 2.0 6.0 0.00 0.00 0.00 39 1002.2
20260505011404 65 279 1.0 4.0 0.00 0.00 0.00 40 1003.6
20260505010901 65 232 0.0 4.0 0.00 0.00 0.00 41 1003.6
20260505010357 65 286 1.0 3.0 0.00 0.00 0.00 40 1003.7
20260505010054 65 243 1.0 7.0 0.00 0.00 0.00 40 1002.2
20260505005853 65 247 4.0 4.0 0.00 0.00 0.00 40 1003.6
20260505005350 66 239 3.0 5.0 0.00 0.00 0.00 39 1003.4
20260505004848 66 233 4.0 7.0 0.00 0.00 0.00 38 1003.6
20260505004555 66 231 2.0 6.0 0.00 0.00 0.00 38 1002.2
20260505004343 66 230 2.0 3.0 0.00 0.00 0.00 39 1003.6
20260505003841 66 77 3.0 8.0 0.00 0.00 0.00 38 1003.5
20260505003338 66 223 0.0 5.0 0.00 0.00 0.00 37 1003.4
20260505003056 66 231 3.0 10.0 0.00 0.00 0.00 37 1002.0
20260505002834 66 231 4.0 13.0 0.00 0.00 0.00 37 1003.2
20260505002331 66 261 3.0 6.0 0.00 0.00 0.00 37 1003.6
20260505001829 66 228 0.0 3.0 0.00 0.00 0.00 37 1003.1
20260505001555 67 247 3.0 9.0 0.00 0.00 0.00 35 1001.6
20260505001326 66 249 2.0 10.0 0.00 0.00 0.00 37 1003.0
20260505000823 67 226 4.0 4.0 0.00 0.00 0.00 37 1003.1
20260505000321 67 260 0.0 2.0 0.00 0.00 0.00 36 1003.0
20260505000055 68 238 1.0 7.0 0.00 0.00 0.00 34 1001.7
20260504235817 68 293 0.0 5.0 0.00 0.00 0.00 34 1003.0
20260504235314 68 299 2.0 8.0 0.00 0.00 0.00 34 1002.8
20260504234811 67 269 1.0 5.0 0.00 0.00 0.00 35 1002.9
20260504234554 68 156 3.0 7.0 0.00 0.00 0.00 33 1001.7
20260504234309 68 239 4.0 4.0 0.00 0.00 0.00 35 1003.0
20260504233805 68 3 0.0 5.0 0.00 0.00 0.00 35 1002.8
20260504233301 68 278 2.0 8.0 0.00 0.00 0.00 34 1002.8
20260504233055 68 226 1.0 9.0 0.00 0.00 0.00 34 1001.6
20260504232758 68 265 2.0 8.0 0.00 0.00 0.00 35 1002.8
20260504232255 68 220 3.0 5.0 0.00 0.00 0.00 34 1002.8
20260504231752 68 247 3.0 6.0 0.00 0.00 0.00 35 1002.7
20260504231248 68 238 4.0 10.0 0.00 0.00 0.00 34 1002.5
20260504230744 69 231 5.0 6.0 0.00 0.00 0.00 35 1002.6
20260504230243 68 250 5.0 9.0 0.00 0.00 0.00 34 1002.6
20260504230055 69 229 5.0 9.0 0.00 0.00 0.00 31 1001.4
20260504225741 69 222 4.0 5.0 0.00 0.00 0.00 34 1002.6
20260504225237 69 222 4.0 5.0 0.00 0.00 0.00 33 1002.5
20260504224734 69 39 0.0 4.0 0.00 0.00 0.00 33 1002.5
20260504224555 69 230 3.0 7.0 0.00 0.00 0.00 32 1001.4
20260504224231 69 45 1.0 2.0 0.00 0.00 0.00 34 1002.6
20260504223728 69 273 2.0 4.0 0.00 0.00 0.00 34 1002.5
20260504223223 69 28 2.0 5.0 0.00 0.00 0.00 33 1002.5
20260504223056 69 230 2.0 12.0 0.00 0.00 0.00 32 1001.4
20260504222721 69 232 5.0 5.0 0.00 0.00 0.00 34 1002.5
20260504222217 69 232 8.0 9.0 0.00 0.00 0.00 34 1002.3
20260504221715 69 173 2.0 7.0 0.00 0.00 0.00 33 1002.6
20260504221557 69 221 2.0 7.0 0.00 0.00 0.00 32 1001.4
20260504221212 69 306 0.0 4.0 0.00 0.00 0.00 34 1002.4
20260504220708 69 256 4.0 4.0 0.00 0.00 0.00 33 1002.5
20260504220206 69 287 3.0 4.0 0.00 0.00 0.00 34 1002.5
20260504220054 69 230 2.0 8.0 0.00 0.00 0.00 32 1001.4
20260504215702 70 231 7.0 8.0 0.00 0.00 0.00 33 1002.6
20260504215159 69 254 3.0 5.0 0.00 0.00 0.00 32 1002.5
20260504214655 69 231 4.0 8.0 0.00 0.00 0.00 34 1002.5
20260504214554 69 222 5.0 10.0 0.00 0.00 0.00 31 1001.4
20260504214152 69 349 1.0 5.0 0.00 0.00 0.00 34 1002.4
20260504213648 70 260 1.0 4.0 0.00 0.00 0.00 33 1002.6
20260504213145 69 15 2.0 3.0 0.00 0.00 0.00 33 1002.4
20260504213056 69 222 2.0 8.0 0.00 0.00 0.00 32 1001.4
20260504212641 69 236 6.0 6.0 0.00 0.00 0.00 33 1002.5
20260504212138 69 318 0.0 10.0 0.00 0.00 0.00 33 1002.4
20260504211636 69 240 3.0 6.0 0.00 0.00 0.00 33 1002.5
20260504211555 70 225 3.0 6.0 0.00 0.00 0.00 33 1001.4
20260504211132 70 236 3.0 8.0 0.00 0.00 0.00 33 1002.5
20260504210630 70 252 2.0 6.0 0.00 0.00 0.00 33 1002.7
20260504210126 69 303 0.0 4.0 0.00 0.00 0.00 33 1002.9
20260504210055 69 241 2.0 7.0 0.00 0.00 0.00 32 1001.7
20260504205624 69 250 2.0 6.0 0.00 0.00 0.00 34 1002.8
20260504205121 69 227 6.0 6.0 0.00 0.00 0.00 35 1003.0
20260504204620 71 229 4.0 10.0 0.00 0.00 0.00 32 1002.9
20260504204555 70 237 3.0 9.0 0.00 0.00 0.00 32 1001.8
20260504204118 70 299 2.0 7.0 0.00 0.00 0.00 32 1003.0
20260504203616 68 233 6.0 6.0 0.00 0.00 0.00 36 1003.2
20260504203113 69 137 2.0 9.0 0.00 0.00 0.00 32 1003.3
20260504203055 69 233 3.0 10.0 0.00 0.00 0.00 31 1002.1
20260504202608 70 252 9.0 9.0 0.00 0.00 0.00 34 1003.3
20260504202105 70 230 4.0 6.0 0.00 0.00 0.00 35 1003.5
20260504201602 70 29 4.0 7.0 0.00 0.00 0.00 32 1003.3
20260504201554 70 245 3.0 7.0 0.00 0.00 0.00 30 1002.3
20260504201100 70 234 6.0 6.0 0.00 0.00 0.00 35 1003.3
20260504200556 72 185 2.0 5.0 0.00 0.00 0.00 34 1003.4
20260504200053 72 233 2.0 6.0 0.00 0.00 0.00 35 1003.5
20260504195549 74 224 10.0 12.0 0.00 0.00 0.00 30 1003.3
20260504195046 73 293 0.0 4.0 0.00 0.00 0.00 32 1003.6
20260504194555 73 233 2.0 5.0 0.00 0.00 0.00 28 1002.3
20260504194543 73 248 2.0 6.0 0.00 0.00 0.00 30 1003.6
20260504194038 74 234 4.0 4.0 0.00 0.00 0.00 31 1003.7
20260504193535 75 265 2.0 4.0 0.00 0.00 0.00 34 1003.9
20260504193056 72 229 2.0 9.0 0.00 0.00 0.00 36 1002.5
20260504193034 73 243 3.0 5.0 0.00 0.00 0.00 37 1003.8
20260504192531 73 227 4.0 10.0 0.00 0.00 0.00 30 1003.8
20260504192029 71 30 2.0 4.0 0.00 0.00 0.00 29 1004.1
20260504191556 72 226 3.0 5.0 0.00 0.00 0.00 31 1002.8
20260504191527 71 191 0.0 6.0 0.00 0.00 0.00 30 1004.1
20260504191023 73 288 2.0 4.0 0.00 0.00 0.00 29 1004.2
20260504190519 73 262 3.0 6.0 0.00 0.00 0.00 35 1004.1
20260504190055 72 221 2.0 12.0 0.00 0.00 0.00 33 1002.7
20260504190015 72 227 4.0 4.0 0.00 0.00 0.00 35 1004.1
20260504185512 71 240 5.0 11.0 0.00 0.00 0.00 34 1004.3
20260504185009 72 227 12.0 13.0 0.00 0.00 0.00 31 1004.4
20260504184555 71 218 2.0 9.0 0.00 0.00 0.00 31 1002.8
20260504184504 71 242 4.0 6.0 0.00 0.00 0.00 33 1004.1
20260504184000 71 224 3.0 9.0 0.00 0.00 0.00 34 1004.2
20260504183457 71 233 1.0 2.0 0.00 0.00 0.00 33 1004.2
20260504183056 71 241 3.0 6.0 0.00 0.00 0.00 30 1002.8
20260504182955 71 275 2.0 6.0 0.00 0.00 0.00 37 1004.2
20260504182452 73 246 1.0 5.0 0.00 0.00 0.00 39 1004.3
20260504181949 72 242 3.0 5.0 0.00 0.00 0.00 34 1004.4
20260504181555 70 253 2.0 9.0 0.00 0.00 0.00 37 1003.0
20260504181446 71 265 2.0 5.0 0.00 0.00 0.00 35 1004.3
20260504180945 69 304 2.0 4.0 0.00 0.00 0.00 37 1004.6
20260504180443 69 225 3.0 10.0 0.00 0.00 0.00 32 1004.6
20260504180055 68 247 3.0 14.0 0.00 0.00 0.00 35 1003.3
20260504175941 68 235 3.0 9.0 0.00 0.00 0.00 41 1004.8
20260504175438 68 233 10.0 10.0 0.00 0.00 0.00 36 1004.8
20260504174935 69 309 0.0 4.0 0.00 0.00 0.00 39 1004.5
20260504174555 69 233 3.0 10.0 0.00 0.00 0.00 39 1003.4
20260504174433 69 244 3.0 7.0 0.00 0.00 0.00 36 1004.6
20260504173930 68 227 3.0 8.0 0.00 0.00 0.00 33 1004.7
20260504173426 70 233 5.0 8.0 0.00 0.00 0.00 39 1004.9
20260504173055 69 263 2.0 10.0 0.00 0.00 0.00 33 1003.3
20260504172924 69 227 5.0 8.0 0.00 0.00 0.00 38 1004.8
20260504172420 69 255 4.0 8.0 0.00 0.00 0.00 38 1004.8
20260504171916 70 250 5.0 9.0 0.00 0.00 0.00 32 1005.0
20260504171555 69 225 2.0 9.0 0.00 0.00 0.00 39 1003.6
20260504171414 69 218 4.0 6.0 0.00 0.00 0.00 34 1004.8
20260504170910 68 233 4.0 5.0 0.00 0.00 0.00 40 1005.2
20260504170407 68 264 2.0 11.0 0.00 0.00 0.00 37 1005.2
20260504160326 65 257 5.0 6.0 0.00 0.00 0.00 36 1006.1
20260504150750 63 241 2.0 6.0 0.00 0.00 0.00 44 1006.7
20260504150247 63 252 3.0 6.0 0.00 0.00 0.00 37 1006.8
20260504141217 59 271 5.0 5.0 0.00 0.00 0.00 37 1007.2
20260504140714 58 240 8.0 13.0 0.00 0.00 0.00 36 1007.2
20260504140209 58 227 3.0 3.0 0.00 0.00 0.00 39 1007.4
20260504130637 55 234 4.0 7.0 0.00 0.00 0.00 39 1007.6
20260504130134 55 51 2.0 7.0 0.00 0.00 0.00 40 1007.9
20260504110525 40 57 1.0 2.0 0.00 0.00 0.00 74 1008.4
20260504100442 37 54 2.0 3.0 0.00 0.00 0.00 75 1008.1
20260504081840 39 62 2.0 3.0 0.00 0.00 0.00 69 1008.4
20260504081554 40 92 0.0 1.0 0.00 0.00 0.00 68 1007.5
20260504081337 40 62 2.0 4.0 0.00 0.00 0.00 69 1008.6
20260504080833 40 66 2.0 3.0 0.00 0.00 0.00 68 1008.2
20260504080331 40 70 2.0 3.0 0.00 0.00 0.00 69 1008.3
20260504070258 43 67 2.0 2.0 0.00 0.00 0.00 61 1008.1
20260504060218 49 61 1.0 2.0 0.00 0.00 0.00 46 1008.2
20260504050646 43 72 2.0 3.0 0.00 0.00 0.00 63 1008.3
20260504050143 42 66 2.0 3.0 0.00 0.00 0.00 62 1008.2
20260504045640 43 41 2.0 3.0 0.00 0.00 0.00 61 1008.2
20260504045140 44 68 2.0 3.0 0.00 0.00 0.00 60 1008.2
20260504044638 42 72 2.0 3.0 0.00 0.00 0.00 63 1008.2
20260504044555 43 116 0.0 3.0 0.00 0.00 0.00 64 1007.2
20260504044135 44 50 3.0 4.0 0.00 0.00 0.00 61 1008.2
20260504043632 43 69 3.0 3.0 0.00 0.00 0.00 58 1008.3
20260504043129 42 68 2.0 3.0 0.00 0.00 0.00 63 1008.3
20260504043055 43 74 1.0 2.0 0.00 0.00 0.00 63 1007.1
20260504042626 42 44 2.0 3.0 0.00 0.00 0.00 62 1008.0
20260504042123 42 55 2.0 3.0 0.00 0.00 0.00 63 1007.9
20260504041618 43 80 2.0 3.0 0.00 0.00 0.00 62 1008.0
20260504041115 43 35 1.0 3.0 0.00 0.00 0.00 60 1007.9
20260504040612 44 52 3.0 3.0 0.00 0.00 0.00 60 1007.8
20260504040109 43 54 2.0 3.0 0.00 0.00 0.00 61 1007.9
20260504040054 43 72 0.0 2.0 0.00 0.00 0.00 62 1007.0
20260504035606 43 70 1.0 3.0 0.00 0.00 0.00 61 1008.0
20260504035102 43 46 2.0 4.0 0.00 0.00 0.00 59 1007.8
20260504034600 43 48 2.0 3.0 0.00 0.00 0.00 60 1007.9
20260504034556 43 92 0.0 2.0 0.00 0.00 0.00 61 1007.0
20260504034057 43 63 2.0 4.0 0.00 0.00 0.00 60 1007.9
20260504033555 43 66 3.0 3.0 0.00 0.00 0.00 59 1008.0
20260504033052 42 64 2.0 3.0 0.00 0.00 0.00 60 1008.0
20260504032549 42 63 2.0 3.0 0.00 0.00 0.00 63 1007.9
20260504032045 41 69 2.0 3.0 0.00 0.00 0.00 66 1007.8
20260504031542 41 66 3.0 4.0 0.00 0.00 0.00 66 1007.8
20260504031038 41 46 3.0 4.0 0.00 0.00 0.00 67 1007.8
20260504030536 41 62 2.0 3.0 0.00 0.00 0.00 67 1007.9
20260504030054 42 53 0.0 2.0 0.00 0.00 0.00 66 1007.1
20260504030032 42 77 1.0 3.0 0.00 0.00 0.00 66 1007.9
20260504025530 42 58 2.0 3.0 0.00 0.00 0.00 65 1007.9
20260504025026 42 76 0.0 4.0 0.00 0.00 0.00 65 1007.8